Regional Weather Roundup
Issued by NWS

Home | Current Version | Previous Version | Text Only | Print | Product List | Glossary On
Versions: 1 2 3 4 5 6 7 8 9 10 11 12 13 14 15 16 17 18 19 20 21 22 23 24 25 26 27 28 29 30 31 32 33 34 35 36 37 38 39 40 41 42 43 44 45 46 47 48 49 50
000
ASUS45 KREV 091810
RWRNV
NEVADA REGIONAL WEATHER ROUNDUP
NATIONAL WEATHER SERVICE RENO NV
1000 AM PST TUE FEB 09 2016

NOTE: "FAIR" INDICATES FEW OR NO CLOUDS BELOW 12,000 FEET WITH NO
SIGNIFICANT WEATHER AND/OR OBSTRUCTIONS TO VISIBILITY.

NVZ001-003-004-091900-
WESTERN NEVADA

CITY           SKY/WX    TMP DP  RH WIND       PRES   REMARKS
RENO           MOSUNNY   41  30  65 CALM      30.49S
6HR MIN TEMP:  27; 6HR MAX TEMP:  41;

CARSON CITY    FAIR      37  28  70 CALM      30.50S
MINDEN         FAIR      37  30  75 CALM      30.50F
SLIDE MTN        N/A     46  18  31 SW17        N/A
PYRAMID LAKE     N/A     45 N/A N/A SE12        N/A
FALLON         SUNNY     41  33  73 CALM      30.50F
6HR MIN TEMP:  27; 6HR MAX TEMP:  42;

LOVELOCK       SUNNY     39  32  76 CALM      30.51F
6HR MIN TEMP:  18; 6HR MAX TEMP:  39;

HAWTHORNE      SUNNY     37  32  81 CALM      30.51F
$$

NVZ002-CAZ072-073-091900-
NORTHERN AND CENTRAL SIERRA

CITY           SKY/WX    TMP DP  RH WIND       PRES   REMARKS
S. LAKE TAHOE  SUNNY     35  25  66 CALM      30.49S
6HR MIN TEMP:  19; 6HR MAX TEMP:  35;

TRUCKEE        SUNNY     28  27  93 CALM      30.50S
SQUAW VLY 8000   N/A     48  14  25 SW7         N/A
SUSANVILLE     SUNNY     41  34  75 CALM      30.49
BLUE CANYON    SUNNY     63  17  17 NW3       30.42S
MAMMOTH LAKES  FAIR      39  25  56 CALM      30.54F
BRIDGEPORT     FAIR      37  19  48 CALM      30.49F
$$

NVZ030-031-036-091900-
NORTHERN NEVADA

CITY           SKY/WX    TMP DP  RH WIND       PRES   REMARKS
ELKO           PTSUNNY   15  12  88 E5        30.59S
6HR MIN TEMP:   6; 6HR MAX TEMP:  15; 6HR PCP: TRACE;

WINNEMUCCA     SUNNY     41  29  62 CALM      30.51R
6HR MIN TEMP:  30; 6HR MAX TEMP:  41;

WENDOVER       CLOUDY    32  27  80 CALM      30.61S
$$

NVZ035-037-091900-
CENTRAL NEVADA

CITY           SKY/WX    TMP DP  RH WIND       PRES   REMARKS
ELY            MOSUNNY   21  15  78 S13       30.56S
6HR MIN TEMP:   4; 6HR MAX TEMP:  21;

EUREKA           N/A     18  13  80 W5        30.57R
6HR MIN TEMP:   0; 6HR MAX TEMP:  18;

$$

NVZ013-014-091900-
SOUTH CENTRAL NEVADA

CITY           SKY/WX    TMP DP  RH WIND       PRES   REMARKS
TONOPAH        SUNNY     38  28  67 E3        30.51S
6HR MIN TEMP:  26; 6HR MAX TEMP:  39;

$$

NVZ017-020-022-091900-
SOUTHERN NEVADA

CITY           SKY/WX    TMP DP  RH WIND       PRES   REMARKS
LAS VEGAS      SUNNY     60  26  27 CALM      30.37S
6HR MIN TEMP:  45; 6HR MAX TEMP:  60;

N. LAS VEGAS   SUNNY     58  27  30 SW3       30.40S
6HR MIN TEMP:  46; 6HR MAX TEMP:  58;

NELLIS AFB     SUNNY     60  28  29 S2        30.40S
6HR MIN TEMP:  46; 6HR MAX TEMP:  60;

HENDERSON      SUNNY     60  27  28 VRB3      30.43R
6HR MIN TEMP:  40; 6HR MAX TEMP:  60;

MERCURY        SUNNY     61  24  24 NE15      30.41R
6HR MIN TEMP:  48; 6HR MAX TEMP:  61;

$$



USA.gov is the U.S. government's official web portal to all federal, state and local government web resources and services.